• In Hungary
  • List of Countries
  • For 7 days
  • Water Temperature
  • Satellite Maps
  • Weather Map
  • News
  • Weather Widgets
  • user-avatar
    Login

    Hourly Weather Dolmatovka

    Today, 19 August, Sunday

    Time Temperature Precipitation Wind Pressure Humidity
    00:00 +16°C° 0 mm 1 mps 749 mmHg 70%
    01:00 +15°C° 0 mm 1 mps 749 mmHg 71%
    02:00 +15°C° 0 mm 1 mps 749 mmHg 72%
    03:00 +15°C° 0 mm 1 mps 749 mmHg 76%
    04:00 +15°C° 0 mm 1 mps 749 mmHg 77%
    05:00 +15°C° 0 mm 1 mps 749 mmHg 78%
    06:00 +15°C° 0 mm 1 mps 749 mmHg 79%
    07:00 +18°C° 0 mm 1 mps 749 mmHg 74%
    08:00 +19°C° 0 mm 2 mps 749 mmHg 69%
    09:00 +21°C° 0 mm 2 mps 749 mmHg 64%
    10:00 +23°C° 0 mm 2 mps 749 mmHg 60%
    11:00 +24°C° 0 mm 2 mps 749 mmHg 56%
    12:00 +26°C° 0 mm 3 mps 748 mmHg 52%
    13:00 +26°C° 0 mm 3 mps 748 mmHg 51%
    14:00 +26°C° 0 mm 3 mps 748 mmHg 51%
    15:00 +26°C° 0 mm 3 mps 747 mmHg 50%
    16:00 +26°C° 0 mm 3 mps 747 mmHg 54%
    17:00 +26°C° 0 mm 3 mps 747 mmHg 58%
    18:00 +25°C° 0 mm 3 mps 746 mmHg 62%
    19:00 +22°C° 0 mm 3 mps 746 mmHg 66%
    20:00 +21°C° 0 mm 3 mps 746 mmHg 69%
    21:00 +19°C° 0 mm 3 mps 746 mmHg 73%
    22:00 +19°C° 0 mm 3 mps 746 mmHg 74%
    23:00 +18°C° 0 mm 3 mps 746 mmHg 75%

    Tomorrow, 20 August, Monday

    Time Temperature Precipitation Wind Pressure Humidity
    00:00 +18°C° 0 mm 3 mps 746 mmHg 76%
    01:00 +17°C° 0 mm 3 mps 746 mmHg 77%
    02:00 +17°C° 0 mm 3 mps 745 mmHg 78%
    03:00 +17°C° 0 mm 3 mps 745 mmHg 80%
    04:00 +16°C° 0 mm 3 mps 745 mmHg 81%
    05:00 +16°C° 0 mm 3 mps 745 mmHg 82%
    06:00 +16°C° 0 mm 3 mps 745 mmHg 84%
    07:00 +18°C° 0 mm 3 mps 745 mmHg 79%
    08:00 +19°C° 0 mm 3 mps 745 mmHg 75%
    09:00 +21°C° 0 mm 3 mps 745 mmHg 71%
    10:00 +22°C° 0 mm 4 mps 745 mmHg 66%
    11:00 +25°C° 0 mm 4 mps 745 mmHg 62%
    12:00 +26°C° 0 mm 4 mps 745 mmHg 58%
    13:00 +27°C° 0.3 mm 4 mps 744 mmHg 58%
    14:00 +27°C° 0.3 mm 4 mps 744 mmHg 58%
    15:00 +27°C° 0.3 mm 4 mps 744 mmHg 57%
    16:00 +27°C° 0.4 mm 4 mps 743 mmHg 62%
    17:00 +26°C° 0.4 mm 3 mps 743 mmHg 66%
    18:00 +25°C° 0.4 mm 3 mps 743 mmHg 71%
    19:00 +24°C° 0 mm 3 mps 743 mmHg 76%
    20:00 +21°C° 0 mm 3 mps 743 mmHg 81%
    21:00 +20°C° 0 mm 2 mps 743 mmHg 86%
    22:00 +19°C° 0 mm 2 mps 742 mmHg 88%
    23:00 +19°C° 0 mm 2 mps 742 mmHg 89%

    Day after tomorrow, 21 August, Tuesday

    Time Temperature Precipitation Wind Pressure Humidity
    00:00 +18°C° 0 mm 3 mps 742 mmHg 90%
    01:00 +18°C° 0 mm 3 mps 742 mmHg 91%
    02:00 +18°C° 0 mm 3 mps 741 mmHg 92%
    03:00 +17°C° 0 mm 3 mps 741 mmHg 92%
    04:00 +17°C° 0 mm 3 mps 741 mmHg 92%
    05:00 +17°C° 0 mm 3 mps 741 mmHg 92%
    06:00 +17°C° 0 mm 4 mps 740 mmHg 91%
    07:00 +19°C° 0 mm 4 mps 740 mmHg 85%
    08:00 +20°C° 0 mm 5 mps 740 mmHg 79%
    09:00 +22°C° 0 mm 6 mps 740 mmHg 72%
    10:00 +23°C° 0.3 mm 7 mps 739 mmHg 69%
    11:00 +24°C° 0.3 mm 7 mps 739 mmHg 66%
    12:00 +26°C° 0.3 mm 8 mps 738 mmHg 63%
    13:00 +26°C° 0.9 mm 8 mps 738 mmHg 66%
    14:00 +24°C° 0.9 mm 8 mps 738 mmHg 69%
    15:00 +24°C° 0.9 mm 8 mps 738 mmHg 72%
    16:00 +23°C° 0.9 mm 7 mps 738 mmHg 74%
    17:00 +22°C° 0.9 mm 6 mps 738 mmHg 77%
    18:00 +21°C° 0.9 mm 5 mps 738 mmHg 79%
    19:00 +20°C° 0 mm 5 mps 738 mmHg 80%
    20:00 +18°C° 0 mm 4 mps 739 mmHg 81%
    21:00 +17°C° 0 mm 4 mps 739 mmHg 82%
    22:00 +15°C° 0 mm 4 mps 740 mmHg 81%
    23:00 +14°C° 0 mm 4 mps 740 mmHg 80%

    22 August, Wednesday

    Time Temperature Precipitation Wind Pressure Humidity
    00:00 +13°C° 0 mm 4 mps 741 mmHg 79%
    01:00 +12°C° 0 mm 4 mps 741 mmHg 80%
    02:00 +12°C° 0 mm 4 mps 741 mmHg 81%
    03:00 +11°C° 0 mm 4 mps 742 mmHg 83%
    04:00 +11°C° 0 mm 4 mps 742 mmHg 84%
    05:00 +10°C° 0 mm 4 mps 742 mmHg 85%
    06:00 +10°C° 0 mm 4 mps 743 mmHg 86%
    07:00 +10°C° 0 mm 5 mps 743 mmHg 80%
    08:00 +13°C° 0 mm 5 mps 744 mmHg 74%
    09:00 +14°C° 0 mm 6 mps 744 mmHg 68%
    10:00 +15°C° 0 mm 6 mps 744 mmHg 62%
    11:00 +16°C° 0 mm 6 mps 744 mmHg 57%
    12:00 +17°C° 0 mm 6 mps 745 mmHg 51%
    13:00 +17°C° 0 mm 6 mps 745 mmHg 51%
    14:00 +19°C° 0 mm 6 mps 745 mmHg 50%
    15:00 +19°C° 0 mm 6 mps 745 mmHg 49%
    16:00 +17°C° 0 mm 5 mps 746 mmHg 53%
    17:00 +17°C° 0 mm 5 mps 746 mmHg 56%
    18:00 +17°C° 0 mm 4 mps 746 mmHg 60%
    19:00 +14°C° 0 mm 4 mps 747 mmHg 64%
    20:00 +13°C° 0 mm 3 mps 747 mmHg 67%
    21:00 +12°C° 0 mm 2 mps 748 mmHg 71%
    22:00 +12°C° 0 mm 2 mps 748 mmHg 73%
    23:00 +10°C° 0 mm 2 mps 748 mmHg 74%

    23 August, Thursday

    Time Temperature Precipitation Wind Pressure Humidity
    00:00 +9°C° 0 mm 2 mps 749 mmHg 76%
    01:00 +9°C° 0 mm 2 mps 749 mmHg 77%
    02:00 +9°C° 0 mm 2 mps 749 mmHg 78%
    03:00 +8°C° 0 mm 2 mps 749 mmHg 79%
    04:00 +9°C° 0 mm 1 mps 749 mmHg 80%
    05:00 +9°C° 0 mm 1 mps 750 mmHg 80%
    06:00 +9°C° 0 mm 1 mps 750 mmHg 81%
    07:00 +11°C° 0 mm 1 mps 750 mmHg 74%
    08:00 +13°C° 0 mm 1 mps 750 mmHg 67%
    09:00 +15°C° 0 mm 1 mps 750 mmHg 60%
    10:00 +16°C° 0 mm 2 mps 750 mmHg 56%
    11:00 +18°C° 0 mm 2 mps 750 mmHg 51%
    12:00 +19°C° 0 mm 2 mps 750 mmHg 46%
    13:00 +19°C° 0 mm 2 mps 750 mmHg 46%
    14:00 +20°C° 0 mm 2 mps 750 mmHg 45%
    15:00 +20°C° 0 mm 2 mps 749 mmHg 44%
    16:00 +20°C° 0 mm 2 mps 749 mmHg 48%
    17:00 +20°C° 0 mm 2 mps 749 mmHg 52%
    18:00 +19°C° 0 mm 2 mps 749 mmHg 57%
    19:00 +17°C° 0 mm 2 mps 749 mmHg 60%
    20:00 +16°C° 0 mm 2 mps 749 mmHg 64%
    21:00 +14°C° 0 mm 2 mps 748 mmHg 67%
    22:00 +13°C° 0 mm 2 mps 749 mmHg 68%
    23:00 +13°C° 0 mm 2 mps 749 mmHg 70%

    24 August, Friday

    Time Temperature Precipitation Wind Pressure Humidity
    00:00 +13°C° 0 mm 2 mps 749 mmHg 71%
    01:00 +12°C° 0 mm 2 mps 749 mmHg 72%
    02:00 +12°C° 0 mm 2 mps 749 mmHg 73%
    03:00 +12°C° 0 mm 2 mps 749 mmHg 74%
    04:00 +10°C° 0 mm 2 mps 749 mmHg 75%
    05:00 +10°C° 0 mm 2 mps 749 mmHg 76%
    06:00 +10°C° 0 mm 2 mps 749 mmHg 77%
    07:00 +13°C° 0 mm 2 mps 749 mmHg 72%
    08:00 +15°C° 0 mm 2 mps 749 mmHg 66%
    09:00 +17°C° 0 mm 2 mps 749 mmHg 61%
    10:00 +19°C° 0 mm 2 mps 749 mmHg 57%
    11:00 +20°C° 0 mm 3 mps 748 mmHg 53%
    12:00 +21°C° 0 mm 3 mps 748 mmHg 49%
    13:00 +22°C° 0 mm 3 mps 748 mmHg 47%
    14:00 +22°C° 0 mm 3 mps 748 mmHg 46%
    15:00 +24°C° 0 mm 2 mps 747 mmHg 45%
    16:00 +23°C° 0 mm 2 mps 747 mmHg 48%
    17:00 +23°C° 0 mm 2 mps 747 mmHg 52%
    18:00 +22°C° 0 mm 1 mps 747 mmHg 55%
    19:00 +19°C° 0 mm 2 mps 747 mmHg 59%
    20:00 +18°C° 0 mm 2 mps 747 mmHg 62%
    21:00 +16°C° 0 mm 2 mps 747 mmHg 65%
    22:00 +15°C° 0 mm 2 mps 747 mmHg 66%
    23:00 +15°C° 0 mm 2 mps 747 mmHg 66%
    Show more